Location: Easthampton
(42.2676°N, 72.6690°W)
Time: 02:12:49
(UTC+00:00)

CAS-4A - Visible Passes

Search period start: 26 March 2023 00:00
Search period end: 05 April 2023 00:00
Orbit: 510 x 527 km, 43.0° (Epoch: 25 March)

Date Brightness Start Highest point End Pass type
(mag) Time Alt. Az. Time Alt. Az. Time Alt. Az.
26 Mar ? 08:48:32 10° SSE 08:49:24 11° SE 08:50:18 10° SE visible
27 Mar ? 08:32:36 12° SSE 08:33:03 12° SE 08:34:47 10° ESE visible
27 Mar ? 10:08:18 10° SW 10:12:10 48° SSE 10:16:03 10° E visible
28 Mar ? 08:17:11 14° SE 08:17:11 14° SE 08:18:53 10° ESE visible
28 Mar ? 09:52:09 11° SW 09:55:49 53° SSE 09:59:45 10° E visible
29 Mar ? 08:01:38 14° ESE 08:01:38 14° ESE 08:02:49 10° ESE visible
29 Mar ? 09:36:36 17° SW 09:39:28 59° SSE 09:43:26 10° E visible
30 Mar ? 07:46:00 13° ESE 07:46:00 13° ESE 07:46:39 10° E visible
30 Mar ? 09:20:57 26° SW 09:23:04 64° SSE 09:27:03 10° E visible
31 Mar ? 07:30:16 11° E 07:30:16 11° E 07:30:24 10° E visible
31 Mar ? 09:05:13 37° SW 09:06:38 70° SSE 09:10:38 10° E visible
01 Apr ? 08:49:25 55° SW 08:50:10 76° SSE 08:54:11 10° E visible
02 Apr ? 08:33:34 79° SSW 08:33:41 81° SSE 08:37:41 10° E visible
03 Apr ? 08:17:40 66° E 08:17:40 66° E 08:21:10 10° E visible
03 Apr ? 09:52:57 10° W 09:56:57 82° N 10:00:59 10° E visible
04 Apr ? 08:01:44 45° E 08:01:44 45° E 08:04:36 10° E visible
04 Apr ? 09:36:40 12° W 09:40:24 85° N 09:44:24 10° E visible
